User: anonymous   Login
Location: Bojarzin Observatory
(39.7980°N, 89.7627°W)
Time: 00:18:03
(UTC-06:00)
Language:

ISS - Orbit

View from above orbital plane
View from above orbital plane
View from above satellite
View from above satellite

Ground track
Ground track

The orbit data is extracted from the following two-line orbital elements,

1 25544U 98067A   15028.47639769  .00010873  00000-0  17395-3 0  7925
2 25544 051.6468 061.6365 0005601 314.6250 194.2743 15.53685679926295
Epoch (UTC): 28 January 2015 11:26:00
Eccentricity: 0.0005601
inclination: 51.6468°
perigee height: 402 km
apogee height: 410 km
right ascension of ascending node: 61.6365°
argument of perigee: 314.6250°
revolutions per day: 15.53685679
mean anomaly at epoch: 194.2743°
orbit number at epoch: 92629

The dashed part of the orbit path shows where the satellite is in the earth's shadow,  

DLR